| time (UTC) | temp C | wind direction | speed KPH | gust KPH | rain 1hr cm | rain 24hr cm | rain mn cm | humidity % | barometer mb |
| 20260504050530 | 2 | 0.0 | 0.0 | 0.00 | 0.00 | 0.00 | 78 | 1010.4 | |
| 20260504045531 | 2 | 0.0 | 0.0 | 0.00 | 0.00 | 0.00 | 78 | 1010.4 | |
| 20260504045051 | 2 | 0.0 | 0.0 | 0.00 | 0.00 | 0.00 | 78 | 1010.5 | |
| 20260504044531 | 2 | 0.0 | 0.0 | 0.00 | 0.00 | 0.00 | 80 | 1010.5 | |
| 20260504044030 | 1 | 0.0 | 0.0 | 0.00 | 0.00 | 0.00 | 82 | 1010.4 | |
| 20260504043530 | 1 | 0.0 | 0.0 | 0.00 | 0.00 | 0.00 | 83 | 1010.4 | |
| 20260504043030 | 1 | 0.0 | 0.0 | 0.00 | 0.00 | 0.00 | 83 | 1010.3 | |
| 20260504042530 | 1 | 0.0 | 0.0 | 0.00 | 0.00 | 0.00 | 82 | 1010.5 | |
| 20260504042052 | 1 | 0.0 | 0.0 | 0.00 | 0.00 | 0.00 | 82 | 1010.4 | |
| 20260504041530 | 1 | 0.0 | 0.0 | 0.00 | 0.00 | 0.00 | 82 | 1010.3 | |
| 20260504041030 | 1 | 0.0 | 0.0 | 0.00 | 0.00 | 0.00 | 83 | 1010.3 | |
| 20260504040530 | 1 | 0.0 | 0.0 | 0.00 | 0.00 | 0.00 | 83 | 1010.2 | |
| 20260504040030 | 1 | 0.0 | 0.0 | 0.00 | 0.00 | 0.00 | 83 | 1010.3 | |
| 20260504035531 | 1 | 0.0 | 0.0 | 0.00 | 0.00 | 0.00 | 82 | 1010.2 | |
| 20260504035031 | 1 | 0.0 | 0.0 | 0.00 | 0.00 | 0.00 | 83 | 1010.2 | |
| 20260504034531 | 1 | 0.0 | 0.0 | 0.00 | 0.00 | 0.00 | 84 | 1010.0 | |
| 20260504034030 | 1 | 0.0 | 0.0 | 0.00 | 0.00 | 0.00 | 82 | 1010.0 | |
| 20260504033530 | 1 | 0.0 | 0.0 | 0.00 | 0.00 | 0.00 | 82 | 1010.1 | |
| 20260504033051 | 2 | 0.0 | 0.0 | 0.00 | 0.00 | 0.00 | 82 | 1010.0 | |
| 20260504032530 | 2 | 0.0 | 0.0 | 0.00 | 0.00 | 0.00 | 83 | 1010.0 | |
| 20260504032030 | 2 | 0.0 | 0.0 | 0.00 | 0.00 | 0.00 | 84 | 1010.2 | |
| 20260504031530 | 2 | 0.0 | 0.0 | 0.00 | 0.00 | 0.00 | 84 | 1010.1 | |
| 20260504031029 | 2 | 0.0 | 0.0 | 0.00 | 0.00 | 0.00 | 84 | 1010.1 | |
| 20260504030529 | 2 | 0.0 | 0.0 | 0.00 | 0.00 | 0.00 | 82 | 1010.0 | |
| 20260504030029 | 2 | 0.0 | 0.0 | 0.00 | 0.00 | 0.00 | 82 | 1010.0 | |
| 20260504025552 | 2 | 0.0 | 0.0 | 0.00 | 0.00 | 0.00 | 81 | 1010.0 | |
| 20260504025051 | 2 | 0.0 | 0.0 | 0.00 | 0.00 | 0.00 | 81 | 1009.9 | |
| 20260504024531 | 2 | 0.0 | 0.0 | 0.00 | 0.00 | 0.00 | 82 | 1009.9 | |
| 20260504024035 | 2 | 0.0 | 0.0 | 0.00 | 0.00 | 0.00 | 80 | 1009.9 | |
| 20260504023530 | 2 | 0.0 | 0.0 | 0.00 | 0.00 | 0.00 | 80 | 1010.0 | |
| 20260504023030 | 2 | 0.0 | 0.0 | 0.00 | 0.00 | 0.00 | 80 | 1009.8 | |
| 20260504022550 | 2 | 0.0 | 0.0 | 0.00 | 0.00 | 0.00 | 78 | 1009.8 | |
| 20260504022030 | 3 | 0.0 | 0.0 | 0.00 | 0.00 | 0.00 | 77 | 1009.7 | |
| 20260504021530 | 3 | 0.0 | 0.0 | 0.00 | 0.00 | 0.00 | 76 | 1009.9 | |
| 20260504021029 | 3 | 0.0 | 0.0 | 0.00 | 0.00 | 0.00 | 76 | 1009.8 | |
| 20260504020529 | 3 | 0.0 | 0.0 | 0.00 | 0.00 | 0.00 | 75 | 1009.9 | |
| 20260504020034 | 3 | 0.0 | 0.0 | 0.00 | 0.00 | 0.00 | 74 | 1009.7 | |
| 20260504015529 | 3 | 0.0 | 0.0 | 0.00 | 0.00 | 0.00 | 74 | 1009.7 | |
| 20260504015031 | 3 | 0.0 | 0.0 | 0.00 | 0.00 | 0.00 | 72 | 1009.7 | |
| 20260504014531 | 3 | 0.0 | 0.0 | 0.00 | 0.00 | 0.00 | 70 | 1009.6 | |
| 20260504014031 | 4 | 0.0 | 0.0 | 0.00 | 0.00 | 0.00 | 71 | 1009.5 | |
| 20260504013531 | 4 | 0.0 | 0.0 | 0.00 | 0.00 | 0.00 | 70 | 1009.6 | |
| 20260504013030 | 4 | 0.0 | 0.0 | 0.00 | 0.00 | 0.00 | 66 | 1009.6 | |
| 20260504012530 | 5 | 0.0 | 0.0 | 0.00 | 0.00 | 0.00 | 67 | 1009.6 | |
| 20260504012050 | 5 | 0.0 | 0.0 | 0.00 | 0.00 | 0.00 | 67 | 1009.5 | |
| 20260504011530 | 5 | 0.0 | 0.0 | 0.00 | 0.00 | 0.00 | 66 | 1009.4 | |
| 20260504011030 | 5 | 0.0 | 0.0 | 0.00 | 0.00 | 0.00 | 66 | 1009.4 | |
| 20260504010530 | 5 | 0.0 | 0.0 | 0.00 | 0.00 | 0.00 | 64 | 1009.3 | |
| 20260504010030 | 5 | 0.0 | 0.0 | 0.00 | 0.00 | 0.00 | 64 | 1009.3 | |
| 20260504005529 | 6 | 0.0 | 0.0 | 0.00 | 0.00 | 0.00 | 62 | 1009.2 | |
| 20260504005029 | 6 | 0.0 | 0.0 | 0.00 | 0.00 | 0.00 | 59 | 1009.1 | |
| 20260504004529 | 6 | 0.0 | 0.0 | 0.00 | 0.00 | 0.00 | 60 | 1009.0 | |
| 20260504004031 | 6 | 0.0 | 0.0 | 0.00 | 0.00 | 0.00 | 59 | 1009.0 | |
| 20260504003531 | 6 | 0.0 | 0.0 | 0.00 | 0.00 | 0.00 | 57 | 1009.0 | |
| 20260504003051 | 7 | 0.0 | 0.0 | 0.00 | 0.00 | 0.00 | 58 | 1008.9 | |
| 20260504002531 | 7 | 0.0 | 0.0 | 0.00 | 0.00 | 0.00 | 56 | 1008.8 | |
| 20260504002051 | 7 | 0.0 | 0.0 | 0.00 | 0.00 | 0.00 | 53 | 1008.8 | |
| 20260504001530 | 8 | 0.0 | 0.0 | 0.00 | 0.00 | 0.00 | 49 | 1008.7 | |
| 20260504001050 | 8 | 0.0 | 0.0 | 0.00 | 0.00 | 0.00 | 48 | 1008.7 | |
| 20260504000530 | 9 | 0.0 | 0.0 | 0.00 | 0.00 | 0.00 | 45 | 1008.6 | |
| 20260504000030 | 9 | 0.0 | 0.0 | 0.00 | 0.00 | 0.00 | 42 | 1008.6 | |
| 20260503235530 | 10 | 203 | 0.0 | 3.2 | 0.00 | 0.00 | 0.00 | 42 | 1008.6 |
| 20260503235029 | 10 | 206 | 0.0 | 3.2 | 0.00 | 0.00 | 0.00 | 39 | 1008.5 |
| 20260503234529 | 10 | 11 | 1.6 | 6.4 | 0.00 | 0.00 | 0.00 | 38 | 1008.4 |
| 20260503234029 | 10 | 349 | 1.6 | 6.4 | 0.00 | 0.00 | 0.00 | 37 | 1008.4 |
| 20260503233549 | 10 | 349 | 1.6 | 6.4 | 0.00 | 0.00 | 0.00 | 37 | 1008.3 |
| 20260503233049 | 10 | 340 | 1.6 | 6.4 | 0.00 | 0.00 | 0.00 | 37 | 1008.2 |
| 20260503232531 | 10 | 336 | 3.2 | 11.3 | 0.00 | 0.00 | 0.00 | 38 | 1008.1 |
| 20260503232031 | 10 | 340 | 3.2 | 6.4 | 0.00 | 0.00 | 0.00 | 36 | 1008.1 |
| 20260503231531 | 10 | 324 | 1.6 | 6.4 | 0.00 | 0.00 | 0.00 | 38 | 1008.0 |
| 20260503231032 | 10 | 337 | 1.6 | 4.8 | 0.00 | 0.00 | 0.00 | 37 | 1007.9 |
| 20260503230550 | 10 | 339 | 3.2 | 11.3 | 0.00 | 0.00 | 0.00 | 36 | 1007.8 |
| 20260503230051 | 11 | 355 | 3.2 | 11.3 | 0.00 | 0.00 | 0.00 | 36 | 1007.7 |
| 20260503225530 | 11 | 1 | 3.2 | 11.3 | 0.00 | 0.00 | 0.00 | 36 | 1007.7 |
| 20260503225030 | 11 | 307 | 1.6 | 4.8 | 0.00 | 0.00 | 0.00 | 38 | 1007.6 |
| 20260503224530 | 11 | 8 | 3.2 | 9.7 | 0.00 | 0.00 | 0.00 | 36 | 1007.6 |
| 20260503224030 | 11 | 5 | 3.2 | 9.7 | 0.00 | 0.00 | 0.00 | 36 | 1007.6 |
| 20260503223529 | 11 | 341 | 3.2 | 9.7 | 0.00 | 0.00 | 0.00 | 35 | 1007.4 |
| 20260503223030 | 11 | 334 | 4.8 | 9.7 | 0.00 | 0.00 | 0.00 | 36 | 1007.3 |
| 20260503222531 | 11 | 334 | 3.2 | 9.7 | 0.00 | 0.00 | 0.00 | 36 | 1007.3 |
| 20260503222031 | 11 | 325 | 3.2 | 6.4 | 0.00 | 0.00 | 0.00 | 35 | 1007.2 |
| 20260503221531 | 11 | 352 | 4.8 | 16.1 | 0.00 | 0.00 | 0.00 | 35 | 1007.1 |
| 20260503221031 | 11 | 330 | 3.2 | 9.7 | 0.00 | 0.00 | 0.00 | 36 | 1007.1 |
| 20260503220531 | 11 | 351 | 3.2 | 9.7 | 0.00 | 0.00 | 0.00 | 35 | 1007.1 |
| 20260503220051 | 11 | 355 | 3.2 | 9.7 | 0.00 | 0.00 | 0.00 | 36 | 1007.1 |
| 20260503215530 | 11 | 355 | 3.2 | 9.7 | 0.00 | 0.00 | 0.00 | 37 | 1007.0 |
| 20260503215031 | 11 | 2 | 1.6 | 9.7 | 0.00 | 0.00 | 0.00 | 36 | 1006.9 |
| 20260503214551 | 11 | 3 | 3.2 | 14.5 | 0.00 | 0.00 | 0.00 | 36 | 1006.9 |
| 20260503214030 | 11 | 342 | 3.2 | 14.5 | 0.00 | 0.00 | 0.00 | 37 | 1006.8 |
| 20260503213529 | 11 | 334 | 3.2 | 11.3 | 0.00 | 0.00 | 0.00 | 36 | 1006.6 |
| 20260503213029 | 11 | 352 | 4.8 | 12.9 | 0.00 | 0.00 | 0.00 | 36 | 1006.7 |
| 20260503212530 | 11 | 355 | 4.8 | 11.3 | 0.00 | 0.00 | 0.00 | 37 | 1006.6 |
| 20260503212029 | 11 | 337 | 4.8 | 12.9 | 0.00 | 0.00 | 0.00 | 36 | 1006.5 |
| 20260503211529 | 11 | 338 | 3.2 | 9.7 | 0.00 | 0.00 | 0.00 | 38 | 1006.4 |
| 20260503211031 | 11 | 326 | 3.2 | 9.7 | 0.00 | 0.00 | 0.00 | 38 | 1006.4 |
| 20260503210531 | 11 | 348 | 3.2 | 9.7 | 0.00 | 0.00 | 0.00 | 37 | 1006.3 |
| 20260503210031 | 11 | 355 | 3.2 | 9.7 | 0.00 | 0.00 | 0.00 | 36 | 1006.1 |
| 20260503205530 | 11 | 345 | 4.8 | 11.3 | 0.00 | 0.00 | 0.00 | 36 | 1006.0 |
| 20260503205031 | 11 | 338 | 3.2 | 6.4 | 0.00 | 0.00 | 0.00 | 37 | 1006.0 |
| 20260503204530 | 11 | 7 | 1.6 | 14.5 | 0.00 | 0.00 | 0.00 | 37 | 1005.9 |
| 20260503204111 | 11 | 360 | 6.4 | 14.5 | 0.00 | 0.00 | 0.00 | 35 | 1005.9 |
| 20260503203530 | 11 | 353 | 6.4 | 17.7 | 0.00 | 0.00 | 0.00 | 34 | 1005.9 |
| 20260503203115 | 11 | 348 | 4.8 | 11.3 | 0.00 | 0.00 | 0.00 | 36 | 1005.8 |
| 20260503202530 | 11 | 357 | 3.2 | 12.9 | 0.00 | 0.00 | 0.00 | 38 | 1005.9 |
| 20260503202030 | 11 | 359 | 4.8 | 12.9 | 0.00 | 0.00 | 0.00 | 36 | 1005.7 |
| 20260503201529 | 11 | 349 | 3.2 | 6.4 | 0.00 | 0.00 | 0.00 | 37 | 1005.7 |
| 20260503201029 | 11 | 297 | 3.2 | 9.7 | 0.00 | 0.00 | 0.00 | 39 | 1005.8 |
| 20260503200529 | 11 | 6 | 3.2 | 6.4 | 0.00 | 0.00 | 0.00 | 40 | 1005.7 |
| 20260503200029 | 11 | 348 | 1.6 | 9.7 | 0.00 | 0.00 | 0.00 | 40 | 1005.8 |
| 20260503195529 | 11 | 349 | 3.2 | 11.3 | 0.00 | 0.00 | 0.00 | 40 | 1005.8 |
| 20260503195031 | 11 | 359 | 3.2 | 6.4 | 0.00 | 0.00 | 0.00 | 42 | 1005.8 |
| 20260503194531 | 11 | 360 | 3.2 | 11.3 | 0.00 | 0.00 | 0.00 | 40 | 1005.9 |
| 20260503194030 | 11 | 355 | 3.2 | 6.4 | 0.00 | 0.00 | 0.00 | 42 | 1005.9 |
| 20260503193530 | 11 | 337 | 3.2 | 6.4 | 0.00 | 0.00 | 0.00 | 43 | 1005.9 |
| 20260503193030 | 11 | 338 | 3.2 | 9.7 | 0.00 | 0.00 | 0.00 | 42 | 1005.8 |
| 20260503192551 | 11 | 350 | 6.4 | 14.5 | 0.00 | 0.00 | 0.00 | 42 | 1005.9 |
| 20260503192030 | 11 | 318 | 3.2 | 9.7 | 0.00 | 0.00 | 0.00 | 42 | 1005.9 |
| 20260503191530 | 12 | 353 | 4.8 | 12.9 | 0.00 | 0.00 | 0.00 | 42 | 1005.9 |
| 20260503191030 | 12 | 4 | 4.8 | 11.3 | 0.00 | 0.00 | 0.00 | 42 | 1005.9 |
| 20260503190530 | 12 | 356 | 3.2 | 9.7 | 0.00 | 0.00 | 0.00 | 43 | 1005.8 |
| 20260503190050 | 11 | 350 | 3.2 | 9.7 | 0.00 | 0.00 | 0.00 | 44 | 1005.9 |
| 20260503185530 | 11 | 337 | 4.8 | 14.5 | 0.00 | 0.00 | 0.00 | 43 | 1005.9 |
| 20260503185030 | 11 | 355 | 4.8 | 14.5 | 0.00 | 0.00 | 0.00 | 43 | 1006.0 |
| 20260503184529 | 11 | 330 | 6.4 | 12.9 | 0.00 | 0.00 | 0.00 | 44 | 1005.9 |
| 20260503184029 | 11 | 5 | 6.4 | 14.5 | 0.00 | 0.00 | 0.00 | 43 | 1005.9 |
| 20260503183529 | 11 | 354 | 3.2 | 9.7 | 0.00 | 0.00 | 0.00 | 45 | 1005.9 |
| 20260503183049 | 11 | 350 | 3.2 | 9.7 | 0.00 | 0.00 | 0.00 | 47 | 1006.0 |
| 20260503182529 | 11 | 356 | 4.8 | 11.3 | 0.00 | 0.00 | 0.00 | 46 | 1006.0 |
| 20260503182031 | 11 | 3 | 4.8 | 12.9 | 0.00 | 0.00 | 0.00 | 47 | 1006.2 |
| 20260503181532 | 11 | 340 | 3.2 | 11.3 | 0.00 | 0.00 | 0.00 | 49 | 1006.1 |
| 20260503181031 | 10 | 1 | 4.8 | 12.9 | 0.00 | 0.00 | 0.00 | 50 | 1006.1 |
| 20260503180530 | 10 | 346 | 3.2 | 9.7 | 0.00 | 0.00 | 0.00 | 49 | 1006.1 |
| 20260503180030 | 10 | 356 | 3.2 | 11.3 | 0.00 | 0.00 | 0.00 | 50 | 1006.1 |
| 20260503175610 | 10 | 2 | 6.4 | 14.5 | 0.00 | 0.00 | 0.00 | 49 | 1006.1 |
| 20260503175030 | 11 | 335 | 6.4 | 16.1 | 0.00 | 0.00 | 0.00 | 49 | 1006.0 |
| 20260503174530 | 11 | 357 | 6.4 | 17.7 | 0.00 | 0.00 | 0.00 | 48 | 1006.0 |
| 20260503174030 | 11 | 0 | 3.2 | 11.3 | 0.00 | 0.00 | 0.00 | 48 | 1006.0 |
| 20260503173529 | 11 | 353 | 6.4 | 14.5 | 0.00 | 0.00 | 0.00 | 48 | 1006.0 |
| 20260503173034 | 11 | 353 | 6.4 | 14.5 | 0.00 | 0.00 | 0.00 | 47 | 1006.1 |
| 20260503172529 | 11 | 357 | 6.4 | 12.9 | 0.00 | 0.00 | 0.00 | 47 | 1006.0 |
| 20260503172029 | 11 | 330 | 4.8 | 12.9 | 0.00 | 0.00 | 0.00 | 48 | 1005.9 |
| 20260503171529 | 10 | 359 | 6.4 | 14.5 | 0.00 | 0.00 | 0.00 | 47 | 1006.0 |
| 20260503171029 | 10 | 18 | 9.7 | 22.5 | 0.00 | 0.00 | 0.00 | 46 | 1006.0 |
| 20260503170531 | 10 | 4 | 4.8 | 16.1 | 0.00 | 0.00 | 0.00 | 47 | 1006.0 |
| 20260503150549 | 8 | 359 | 4.8 | 14.5 | 0.00 | 0.00 | 0.00 | 71 | 1006.1 |
| 20260503150109 | 8 | 329 | 4.8 | 11.3 | 0.00 | 0.00 | 0.00 | 73 | 1006.0 |
| 20260503140110 | 6 | 343 | 3.2 | 14.5 | 0.00 | 0.00 | 0.00 | 81 | 1006.3 |
| 20260503131050 | 6 | 345 | 3.2 | 9.7 | 0.00 | 0.08 | 0.00 | 82 | 1006.6 |
| 20260503130530 | 6 | 2 | 3.2 | 9.7 | 0.00 | 0.10 | 0.00 | 81 | 1006.6 |
| 20260503110531 | 5 | 337 | 1.6 | 4.8 | 0.00 | 0.15 | 0.00 | 80 | 1007.0 |
| 20260503100109 | 6 | 310 | 0.0 | 3.2 | 0.00 | 0.15 | 0.00 | 81 | 1007.1 |
| 20260503081030 | 7 | 9 | 1.6 | 3.2 | 0.00 | 0.15 | 0.00 | 80 | 1008.0 |
| 20260503080529 | 7 | 4 | 1.6 | 3.2 | 0.00 | 0.15 | 0.00 | 81 | 1008.3 |
| 20260503072530 | 7 | 356 | 0.0 | 3.2 | 0.00 | 0.15 | 0.00 | 84 | 1008.3 |
| 20260503072030 | 7 | 356 | 0.0 | 3.2 | 0.00 | 0.15 | 0.00 | 84 | 1008.3 |
| 20260503071530 | 7 | 0.0 | 0.0 | 0.00 | 0.15 | 0.00 | 84 | 1008.5 | |
| 20260503071030 | 7 | 0.0 | 0.0 | 0.00 | 0.15 | 0.00 | 84 | 1008.5 | |
| 20260503070550 | 7 | 0.0 | 0.0 | 0.00 | 0.15 | 0.00 | 83 | 1008.4 |